Hourly Weather Smolyanka

Today, 17 May, Monday

Time Temperature Precipitation Wind Pressure Humidity
00:00 +12°C° 0 mm 2 mps 745 mmHg 92%
01:00 +12°C° 0 mm 2 mps 745 mmHg 93%
02:00 +12°C° 0 mm 2 mps 745 mmHg 96%
03:00 +12°C° 0 mm 2 mps 745 mmHg 95%
04:00 +11°C° 0 mm 3 mps 745 mmHg 94%
05:00 +12°C° 0 mm 3 mps 745 mmHg 94%
06:00 +13°C° 0 mm 3 mps 744 mmHg 88%
07:00 +15°C° 0 mm 4 mps 744 mmHg 83%
08:00 +18°C° 0 mm 4 mps 744 mmHg 76%
09:00 +19°C° 0.4 mm 4 mps 744 mmHg 74%
10:00 +19°C° 0.4 mm 4 mps 744 mmHg 71%
11:00 +20°C° 0.4 mm 4 mps 744 mmHg 69%
12:00 +20°C° 0.5 mm 4 mps 744 mmHg 70%
13:00 +20°C° 0.5 mm 4 mps 744 mmHg 71%
14:00 +20°C° 0.5 mm 4 mps 743 mmHg 72%
15:00 +19°C° 1 mm 3 mps 743 mmHg 79%
16:00 +17°C° 1 mm 2 mps 743 mmHg 87%
17:00 +15°C° 1 mm 1 mps 743 mmHg 94%
18:00 +15°C° 3.6 mm 2 mps 742 mmHg 96%
19:00 +14°C° 3.6 mm 2 mps 742 mmHg 97%
20:00 +14°C° 3.6 mm 2 mps 741 mmHg 98%
21:00 +14°C° 1.7 mm 2 mps 741 mmHg 98%
22:00 +13°C° 1.7 mm 2 mps 741 mmHg 98%
23:00 +13°C° 1.7 mm 2 mps 741 mmHg 98%

Tomorrow, 18 May, Tuesday

Time Temperature Precipitation Wind Pressure Humidity
00:00 +13°C° 0 mm 2 mps 741 mmHg 98%
01:00 +13°C° 0 mm 2 mps 741 mmHg 98%
02:00 +13°C° 0 mm 2 mps 741 mmHg 98%
03:00 +13°C° 0.1 mm 2 mps 741 mmHg 98%
04:00 +13°C° 0.1 mm 2 mps 740 mmHg 98%
05:00 +12°C° 0.1 mm 3 mps 740 mmHg 98%
06:00 +12°C° 0.6 mm 3 mps 740 mmHg 98%
07:00 +13°C° 0.6 mm 2 mps 741 mmHg 98%
08:00 +13°C° 0.6 mm 2 mps 741 mmHg 98%
09:00 +12°C° 0 mm 3 mps 741 mmHg 98%
10:00 +12°C° 0 mm 3 mps 741 mmHg 97%
11:00 +12°C° 0 mm 3 mps 741 mmHg 97%
12:00 +12°C° 0.2 mm 3 mps 741 mmHg 97%
13:00 +12°C° 0.2 mm 3 mps 741 mmHg 97%
14:00 +13°C° 0.2 mm 3 mps 741 mmHg 97%
15:00 +13°C° 0.2 mm 3 mps 740 mmHg 97%
16:00 +13°C° 0.2 mm 3 mps 740 mmHg 97%
17:00 +14°C° 0.2 mm 2 mps 740 mmHg 97%
18:00 +14°C° 1.1 mm 2 mps 739 mmHg 98%
19:00 +14°C° 1.1 mm 2 mps 739 mmHg 98%
20:00 +15°C° 1.1 mm 2 mps 739 mmHg 98%
21:00 +15°C° 0.4 mm 2 mps 739 mmHg 98%
22:00 +15°C° 0.4 mm 2 mps 739 mmHg 98%
23:00 +15°C° 0.4 mm 2 mps 738 mmHg 98%

Day after tomorrow, 19 May, Wednesday

Time Temperature Precipitation Wind Pressure Humidity
00:00 +14°C° 0.1 mm 2 mps 738 mmHg 98%
01:00 +14°C° 0.1 mm 1 mps 738 mmHg 98%
02:00 +14°C° 0.1 mm 1 mps 737 mmHg 98%
03:00 +14°C° 0.6 mm 2 mps 737 mmHg 98%
04:00 +14°C° 0.6 mm 2 mps 737 mmHg 98%
05:00 +15°C° 0.6 mm 2 mps 737 mmHg 99%
06:00 +14°C° 0.3 mm 3 mps 737 mmHg 98%
07:00 +14°C° 0.3 mm 3 mps 738 mmHg 97%
08:00 +14°C° 0.3 mm 3 mps 738 mmHg 96%
09:00 +16°C° 0.2 mm 3 mps 738 mmHg 93%
10:00 +17°C° 0.2 mm 4 mps 739 mmHg 90%
11:00 +17°C° 0.2 mm 4 mps 739 mmHg 87%
12:00 +17°C° 0.3 mm 4 mps 739 mmHg 87%
13:00 +15°C° 0.3 mm 4 mps 740 mmHg 88%
14:00 +15°C° 0.3 mm 4 mps 740 mmHg 88%
15:00 +14°C° 0 mm 3 mps 741 mmHg 88%
16:00 +13°C° 0 mm 3 mps 741 mmHg 87%
17:00 +12°C° 0 mm 3 mps 741 mmHg 87%
18:00 +11°C° 0 mm 3 mps 742 mmHg 89%
19:00 +11°C° 0 mm 3 mps 742 mmHg 90%
20:00 +10°C° 0 mm 3 mps 742 mmHg 92%
21:00 +10°C° 0 mm 3 mps 743 mmHg 92%
22:00 +10°C° 0 mm 3 mps 743 mmHg 91%
23:00 +10°C° 0 mm 3 mps 744 mmHg 91%

20 May, Thursday

Time Temperature Precipitation Wind Pressure Humidity
00:00 +9°C° 0 mm 2 mps 744 mmHg 93%
01:00 +8°C° 0 mm 2 mps 744 mmHg 95%
02:00 +7°C° 0 mm 2 mps 744 mmHg 97%
03:00 +7°C° 0 mm 2 mps 745 mmHg 95%
04:00 +8°C° 0 mm 1 mps 745 mmHg 93%
05:00 +8°C° 0 mm 1 mps 745 mmHg 92%
06:00 +9°C° 0 mm 1 mps 745 mmHg 88%
07:00 +10°C° 0 mm 2 mps 745 mmHg 83%
08:00 +12°C° 0 mm 2 mps 745 mmHg 79%
09:00 +12°C° 0 mm 2 mps 745 mmHg 76%
10:00 +12°C° 0 mm 3 mps 745 mmHg 73%
11:00 +12°C° 0 mm 3 mps 745 mmHg 69%
12:00 +12°C° 0.1 mm 3 mps 745 mmHg 71%
13:00 +12°C° 0.1 mm 3 mps 745 mmHg 72%
14:00 +12°C° 0.1 mm 4 mps 745 mmHg 74%
15:00 +12°C° 0.1 mm 4 mps 745 mmHg 75%
16:00 +12°C° 0.1 mm 4 mps 745 mmHg 77%
17:00 +11°C° 0.1 mm 4 mps 745 mmHg 79%
18:00 +11°C° 0 mm 4 mps 744 mmHg 78%
19:00 +10°C° 0 mm 5 mps 744 mmHg 76%
20:00 +10°C° 0 mm 5 mps 744 mmHg 75%
21:00 +9°C° 0 mm 5 mps 743 mmHg 75%
22:00 +9°C° 0 mm 5 mps 743 mmHg 76%
23:00 +9°C° 0 mm 5 mps 742 mmHg 76%

21 May, Friday

Time Temperature Precipitation Wind Pressure Humidity
00:00 +8°C° 1 mm 5 mps 742 mmHg 81%
01:00 +8°C° 1 mm 5 mps 742 mmHg 86%
02:00 +7°C° 1 mm 5 mps 742 mmHg 91%
03:00 +7°C° 2 mm 5 mps 742 mmHg 92%
04:00 +6°C° 2 mm 5 mps 742 mmHg 94%
05:00 +6°C° 2 mm 5 mps 741 mmHg 95%
06:00 +6°C° 0.8 mm 5 mps 741 mmHg 96%
07:00 +6°C° 0.8 mm 5 mps 741 mmHg 96%
08:00 +6°C° 0.8 mm 4 mps 741 mmHg 96%
09:00 +7°C° 0.6 mm 5 mps 742 mmHg 95%
10:00 +7°C° 0.6 mm 5 mps 742 mmHg 94%
11:00 +8°C° 0.6 mm 5 mps 742 mmHg 93%
12:00 +8°C° 0.3 mm 5 mps 742 mmHg 90%
13:00 +9°C° 0.3 mm 5 mps 742 mmHg 87%
14:00 +9°C° 0.3 mm 5 mps 742 mmHg 83%
15:00 +11°C° 0.2 mm 4 mps 743 mmHg 81%
16:00 +11°C° 0.2 mm 4 mps 743 mmHg 80%
17:00 +11°C° 0.2 mm 3 mps 743 mmHg 78%
18:00 +11°C° 0 mm 3 mps 743 mmHg 77%
19:00 +11°C° 0 mm 4 mps 744 mmHg 76%
20:00 +10°C° 0 mm 4 mps 744 mmHg 75%
21:00 +8°C° 0 mm 4 mps 744 mmHg 78%
22:00 +7°C° 0 mm 4 mps 744 mmHg 80%
23:00 +7°C° 0 mm 4 mps 745 mmHg 83%

22 May, Saturday

Time Temperature Precipitation Wind Pressure Humidity
00:00 +7°C° 0 mm 3 mps 745 mmHg 85%
01:00 +5°C° 0 mm 3 mps 745 mmHg 88%
02:00 +5°C° 0 mm 3 mps 745 mmHg 91%
03:00 +5°C° 0 mm 3 mps 746 mmHg 91%
04:00 +5°C° 0 mm 3 mps 746 mmHg 92%
05:00 +5°C° 0 mm 2 mps 746 mmHg 92%
06:00 +7°C° 0 mm 3 mps 746 mmHg 84%
07:00 +8°C° 0 mm 3 mps 746 mmHg 75%
08:00 +8°C° 0 mm 4 mps 746 mmHg 66%
09:00 +10°C° 0 mm 4 mps 746 mmHg 61%
10:00 +12°C° 0 mm 4 mps 746 mmHg 55%
11:00 +13°C° 0 mm 4 mps 746 mmHg 49%
12:00 +13°C° 0 mm 3 mps 746 mmHg 50%
13:00 +13°C° 0 mm 3 mps 746 mmHg 51%
14:00 +13°C° 0 mm 3 mps 747 mmHg 52%
15:00 +13°C° 0 mm 3 mps 747 mmHg 52%
16:00 +15°C° 0 mm 2 mps 747 mmHg 52%
17:00 +15°C° 0 mm 2 mps 747 mmHg 52%
18:00 +14°C° 0 mm 2 mps 747 mmHg 58%
19:00 +13°C° 0 mm 2 mps 747 mmHg 65%
20:00 +12°C° 0 mm 2 mps 747 mmHg 71%
21:00 +10°C° 0 mm 2 mps 747 mmHg 78%
22:00 +9°C° 0 mm 2 mps 748 mmHg 84%
23:00 +7°C° 0 mm 2 mps 748 mmHg 90%
Show more

We Need Your Consent

Meteoprog and our Service Providers may store and access personal data such as cookies, device identifiers or other similar technologies on your device and process such data to personalise content and ads, as well as provide social media features and to analyse the traffic.

  • Store and/or access information on your device

    Cookies, device identifiers or other information can be stored or accessed on your device for the purposes indicated above.

  • Personalised ads and content, ad and content measurement, audience insights, and products development

    Ads and content can be personalised based on a profile. More data can be added to better personalise ads and content. Ad and content performance can be measured. Insights about the audience who saw the ads and content can be derived. Such data can be used to develop or improve user’s experience, systems and software.

By clicking ‘I Agree’ you will allow the use of indicated cookies, device identifiers, web beacons or other similar technologies. Your settings can be changed in the browser on your device.

For certain purposes, legitimate interests may be relied on, rather than consent. You can read more about this in our Privacy and Cookie Policy.